period_start,C,m1,H,J0,J1,J2,J3,J4,J5,JA,JB,JC,JD,JJ,JK,JN,#
2016-05-18 00:02:59,0.05,0.06,0.00,22.88,27.07,30.01,14.11,47.10,1021.51,2038.00,3543.27,3155.92,3584.24,577.74,576.94,0.01,0000 0000 0000 0000 000000
2016-05-18 00:08:00,0.05,0.00,0.00,22.91,27.08,30.04,14.57,48.94,1021.51,2038.00,3539.63,3154.90,3583.67,600.14,599.19,0.06,0000 0000 0000 0000 000000
2016-05-18 00:13:01,0.04,0.00,0.00,22.95,27.10,30.06,14.65,48.75,1021.52,2037.99,3538.36,3154.08,3582.82,600.06,598.99,0.11,0000 0000 0000 0000 000000
2016-05-18 00:18:02,0.05,0.00,0.00,23.00,27.12,30.11,14.64,48.63,1021.53,2037.97,3537.26,3153.43,3581.94,599.92,598.84,0.16,0000 0000 0000 0000 000000
2016-05-18 00:23:04,0.04,0.00,0.00,23.04,27.15,30.12,14.65,48.73,1021.51,2037.92,3536.33,3153.00,3581.08,600.34,599.16,0.21,0000 0000 0000 0000 000000
2016-05-18 00:28:05,0.02,0.00,0.00,23.08,27.17,30.13,14.65,48.71,1021.50,2037.66,3535.56,3152.39,3580.39,600.23,598.90,0.26,0000 0000 0000 0000 000000
2016-05-18 00:33:06,-0.00,0.00,0.00,23.10,27.20,30.15,14.59,48.59,1021.50,2037.15,3534.51,3151.98,3579.65,600.12,598.91,0.31,0000 0000 0000 0000 000000
2016-05-18 00:38:07,0.03,0.00,0.00,23.12,27.22,30.19,14.65,48.58,1021.50,2037.04,3533.69,3151.28,3579.00,600.32,598.99,0.36,0000 0000 0000 0000 000000
2016-05-18 00:43:08,0.02,0.01,0.00,23.15,27.25,30.21,14.56,48.71,1021.50,2037.01,3533.00,3150.99,3578.25,599.79,598.34,0.41,0000 0000 0000 0000 000000
2016-05-18 00:48:10,0.04,0.01,0.00,23.16,27.26,30.25,14.47,48.59,1021.50,2037.00,3532.15,3150.38,3577.74,599.93,598.62,0.46,0000 0000 0000 0000 000000
2016-05-18 00:53:11,0.02,0.01,0.00,23.16,27.28,30.26,14.59,48.67,1021.50,2037.00,3531.27,3149.99,3577.02,599.85,598.35,0.51,0000 0000 0000 0000 000000
2016-05-18 00:58:12,0.04,0.01,0.00,23.17,27.30,30.28,14.58,48.72,1021.50,2037.00,3530.61,3149.42,3576.39,600.07,598.52,0.56,0000 0000 0000 0000 000000
2016-05-18 01:03:14,0.01,0.01,0.00,23.18,27.32,30.32,14.56,48.64,1021.50,2036.99,3529.85,3148.98,3575.85,599.94,598.64,0.61,0000 0000 0000 0000 000000
2016-05-18 01:08:15,0.04,0.01,0.00,23.20,27.34,30.35,14.54,48.54,1021.50,2036.97,3529.04,3148.37,3575.06,599.86,598.28,0.66,0000 0000 0000 0000 000000
2016-05-18 01:13:17,0.02,0.02,0.00,23.22,27.36,30.36,14.54,48.59,1021.50,2036.97,3528.36,3148.01,3574.71,599.79,598.38,0.71,0000 0000 0000 0000 000000
2016-05-18 01:18:18,0.03,0.02,0.00,23.23,27.37,30.36,14.60,48.71,1021.50,2036.89,3527.64,3147.60,3574.02,600.06,598.45,0.76,0000 0000 0000 0000 000000
2016-05-18 01:23:19,0.02,0.02,0.00,23.26,27.40,30.38,14.60,48.82,1021.50,2036.83,3527.00,3147.02,3573.47,599.95,598.20,0.81,0000 0000 0000 0000 000000
2016-05-18 01:28:20,-0.02,0.02,0.00,23.27,27.41,30.41,14.62,48.90,1021.50,2036.51,3526.19,3146.77,3572.98,600.07,598.36,0.86,0000 0000 0000 0000 000000
2016-05-18 01:33:21,0.02,0.02,0.00,23.30,27.43,30.42,14.60,48.84,1021.52,2036.20,3525.53,3146.06,3572.21,599.62,597.93,0.91,0000 0000 0000 0000 000000
2016-05-18 01:38:23,0.00,0.02,0.00,23.33,27.46,30.43,14.57,48.61,1021.69,2036.13,3524.93,3145.96,3571.96,600.00,598.27,0.96,0000 0000 0000 0000 000000
2016-05-18 01:43:24,0.04,0.02,0.00,23.37,27.47,30.46,14.62,48.75,1021.95,2036.04,3524.11,3145.19,3571.16,600.32,598.71,1.01,0000 0000 0000 0000 000000
2016-05-18 01:48:25,0.01,0.02,0.00,23.40,27.50,30.48,14.57,48.57,1021.99,2036.01,3523.45,3145.00,3570.85,600.12,598.51,1.06,0000 0000 0000 0000 000000
2016-05-18 01:53:27,0.03,0.02,0.00,23.43,27.52,30.50,14.62,48.62,1021.99,2036.00,3522.90,3144.44,3570.11,600.11,598.32,1.11,0000 0000 0000 0000 000000
2016-05-18 01:58:28,0.03,0.03,0.00,23.47,27.55,30.54,14.54,48.57,1021.99,2036.00,3522.07,3144.01,3569.48,599.54,597.78,1.16,0000 0000 0000 0000 000000
2016-05-18 02:03:29,0.04,0.03,0.00,23.51,27.57,30.54,14.64,48.83,1021.99,2036.00,3521.34,3143.40,3568.97,600.08,598.20,1.21,0000 0000 0000 0000 000000
2016-05-18 02:08:31,0.02,0.03,0.00,23.56,27.60,30.56,14.49,48.54,1022.00,2035.98,3520.79,3143.00,3568.21,599.29,597.52,1.26,0000 0000 0000 0000 000000
2016-05-18 02:13:32,0.02,0.03,0.00,23.58,27.63,30.59,14.63,48.67,1022.22,2035.97,3520.05,3142.55,3567.88,600.33,598.44,1.31,0000 0000 0000 0000 000000
2016-05-18 02:18:33,-0.02,0.03,0.00,23.62,27.66,30.63,14.56,48.71,1022.38,2035.64,3519.59,3142.01,3567.06,600.19,598.39,1.36,0000 0000 0000 0000 000000
2016-05-18 02:23:35,0.00,0.03,0.00,23.67,27.69,30.65,14.60,48.72,1022.36,2035.11,3519.00,3141.56,3566.33,600.16,598.22,1.41,0000 0000 0000 0000 000000
2016-05-18 02:28:36,0.02,0.03,0.00,23.71,27.71,30.68,14.60,48.77,1022.15,2035.05,3518.33,3141.01,3565.95,600.27,598.16,1.47,0000 0000 0000 0000 000000
2016-05-18 02:33:37,0.03,0.03,0.00,23.74,27.74,30.72,14.52,48.61,1022.22,2035.01,3517.77,3140.67,3565.16,599.93,597.75,1.52,0000 0000 0000 0000 000000
2016-05-18 02:38:38,0.02,0.03,0.00,23.79,27.77,30.73,14.62,48.73,1022.46,2035.00,3517.01,3140.04,3564.80,599.92,597.79,1.57,0000 0000 0000 0000 000000
2016-05-18 02:43:40,0.03,0.03,0.00,23.83,27.80,30.78,14.55,48.58,1022.48,2035.00,3516.23,3139.74,3564.03,599.80,597.61,1.62,0000 0000 0000 0000 000000
2016-05-18 02:48:41,0.02,0.04,0.00,23.87,27.83,30.80,14.52,48.45,1022.45,2034.96,3515.86,3139.06,3563.62,600.39,598.01,1.67,0000 0000 0000 0000 000000
2016-05-18 02:53:42,0.01,0.04,0.00,23.90,27.86,30.85,14.54,48.58,1022.35,2034.87,3515.06,3138.84,3563.01,599.81,597.36,1.72,0000 0000 0000 0000 000000
2016-05-18 02:58:43,-0.01,0.04,0.00,23.94,27.89,30.90,14.58,48.53,1022.45,2034.46,3514.43,3138.13,3562.39,600.08,597.64,1.77,0000 0000 0000 0000 000000
2016-05-18 03:03:45,0.00,0.04,0.00,23.98,27.92,30.92,14.62,48.63,1022.48,2034.04,3513.73,3137.87,3561.91,599.95,597.49,1.82,0000 0000 0000 0000 000000
2016-05-18 03:08:46,0.04,0.04,0.00,24.02,27.96,30.97,14.61,48.57,1022.48,2034.01,3513.05,3137.09,3561.09,600.37,597.63,1.87,0000 0000 0000 0000 000000
2016-05-18 03:13:48,0.02,0.04,0.00,24.06,27.99,30.99,14.56,48.47,1022.48,2034.00,3512.37,3136.94,3560.68,600.27,597.60,1.92,0000 0000 0000 0000 000000
2016-05-18 03:18:49,0.03,0.04,0.00,24.09,28.02,31.03,14.56,48.43,1022.48,2034.00,3511.90,3136.18,3560.03,600.00,597.23,1.97,0000 0000 0000 0000 000000
2016-05-18 03:23:50,0.02,0.04,0.00,24.14,28.05,31.08,14.57,48.53,1022.48,2033.99,3511.12,3135.97,3559.65,600.32,597.25,2.02,0000 0000 0000 0000 000000
2016-05-18 03:28:51,0.03,0.04,0.00,24.19,28.08,31.09,14.51,48.46,1022.48,2033.96,3510.55,3135.27,3559.01,600.05,597.10,2.07,0000 0000 0000 0000 000000
2016-05-18 03:33:52,0.01,0.04,0.00,24.21,28.12,31.13,14.44,48.14,1022.51,2033.89,3509.99,3135.00,3558.40,599.64,596.86,2.12,0000 0000 0000 0000 000000
2016-05-18 03:38:53,-0.03,0.04,0.00,24.24,28.15,31.17,14.52,48.16,1022.69,2033.45,3509.23,3134.86,3557.95,599.84,596.93,2.17,0000 0000 0000 0000 000000
2016-05-18 03:43:54,0.02,0.04,0.00,24.28,28.18,31.20,14.50,48.40,1022.91,2033.06,3508.62,3134.07,3557.14,600.02,596.98,2.22,0000 0000 0000 0000 000000
2016-05-18 03:48:56,0.01,0.04,0.00,24.31,28.21,31.23,14.62,48.51,1022.96,2033.00,3508.00,3133.88,3556.80,600.40,597.44,2.27,0000 0000 0000 0000 000000
2016-05-18 03:53:57,0.04,0.05,0.00,24.35,28.25,31.26,14.49,48.42,1022.96,2033.00,3507.34,3133.10,3556.05,599.89,597.06,2.32,0000 0000 0000 0000 000000
2016-05-18 03:58:58,0.02,0.05,0.00,24.38,28.28,31.30,14.50,48.49,1022.96,2033.00,3506.70,3132.87,3555.51,599.62,596.68,2.37,0000 0000 0000 0000 000000
2016-05-18 04:03:59,0.02,0.05,0.00,24.41,28.32,31.34,14.55,48.28,1022.97,2032.96,3506.02,3132.09,3554.97,600.25,597.17,2.42,0000 0000 0000 0000 000000
2016-05-18 04:09:00,-0.03,0.05,0.00,24.44,28.36,31.37,14.51,48.33,1022.98,2032.54,3505.33,3131.86,3554.18,600.45,597.25,2.47,0000 0000 0000 0000 000000
2016-05-18 04:14:02,0.00,0.05,0.00,24.47,28.39,31.40,14.50,48.57,1022.99,2032.09,3504.83,3131.09,3553.82,600.01,596.96,2.52,0000 0000 0000 0000 000000
2016-05-18 04:19:03,0.02,0.05,0.00,24.51,28.42,31.43,14.56,48.86,1023.00,2032.01,3504.04,3130.82,3553.04,600.16,596.89,2.57,0000 0000 0000 0000 000000
2016-05-18 04:24:04,0.04,0.05,0.00,24.54,28.46,31.47,14.52,48.71,1023.03,2032.00,3503.26,3130.07,3552.48,599.82,596.48,2.62,0000 0000 0000 0000 000000
2016-05-18 04:29:06,0.00,0.05,0.00,24.57,28.49,31.50,14.58,48.73,1023.35,2032.00,3502.87,3129.93,3552.01,599.74,596.55,2.67,0000 0000 0000 0000 000000
2016-05-18 04:34:07,0.04,0.05,0.00,24.60,28.53,31.53,14.51,48.68,1023.44,2031.98,3502.06,3129.17,3551.60,600.26,597.01,2.72,0000 0000 0000 0000 000000
2016-05-18 04:39:09,0.01,0.06,0.00,24.62,28.56,31.55,14.53,48.53,1023.45,2031.94,3501.39,3128.95,3550.94,600.06,596.84,2.77,0000 0000 0000 0000 000000
2016-05-18 04:44:10,0.02,0.06,0.00,24.64,28.59,31.59,14.54,48.62,1023.45,2031.74,3500.87,3128.20,3550.14,599.78,596.54,2.82,0000 0000 0000 0000 000000
2016-05-18 04:49:12,-0.03,0.06,0.00,24.67,28.63,31.63,14.51,48.51,1023.44,2031.30,3500.11,3127.99,3549.79,600.27,596.85,2.87,0000 0000 0000 0000 000000
2016-05-18 04:54:13,0.03,0.06,0.00,24.71,28.66,31.64,14.51,48.73,1023.44,2031.03,3499.60,3127.36,3549.06,599.75,596.38,2.92,0000 0000 0000 0000 000000
2016-05-18 04:59:14,0.01,0.06,0.00,24.74,28.70,31.66,14.49,48.60,1023.43,2031.00,3498.97,3126.99,3548.67,600.27,596.72,2.97,0000 0000 0000 0000 000000
2016-05-18 05:04:15,0.03,0.06,0.00,24.77,28.73,31.71,14.50,48.53,1023.44,2031.00,3498.25,3126.60,3548.03,599.59,596.05,3.02,0000 0000 0000 0000 000000
2016-05-18 05:09:16,0.01,0.06,0.00,24.81,28.76,31.72,14.59,48.59,1023.44,2030.99,3497.87,3126.02,3547.69,600.13,596.48,3.07,0000 0000 0000 0000 000000
2016-05-18 05:14:17,0.03,0.06,0.00,24.84,28.80,31.76,14.51,48.65,1023.45,2030.96,3497.08,3125.72,3547.03,599.94,596.40,3.12,0000 0000 0000 0000 000000
2016-05-18 05:19:19,-0.01,0.06,0.00,24.85,28.83,31.78,14.53,48.54,1023.45,2030.58,3496.60,3125.07,3546.46,600.56,596.86,3.17,0000 0000 0000 0000 000000
2016-05-18 05:24:20,-0.02,0.06,0.00,24.87,28.86,31.82,14.54,48.71,1023.45,2030.14,3495.99,3124.80,3545.98,600.19,596.54,3.22,0000 0000 0000 0000 000000
2016-05-18 05:29:20,0.03,0.06,0.00,24.90,28.90,31.84,14.53,48.57,1023.47,2030.02,3495.30,3124.10,3545.26,600.19,596.57,3.27,0000 0000 0000 0000 000000
2016-05-18 05:34:22,0.01,0.06,0.00,24.93,28.93,31.86,14.52,48.52,1023.48,2030.00,3494.83,3123.91,3544.91,599.92,596.22,3.32,0000 0000 0000 0000 000000
2016-05-18 05:39:23,0.04,0.07,0.00,24.94,28.96,31.91,14.49,48.45,1023.49,2030.00,3494.05,3123.13,3544.09,599.79,596.03,3.37,0000 0000 0000 0000 000000
2016-05-18 05:44:25,0.01,0.07,0.00,24.97,28.99,31.92,14.42,48.47,1023.53,2029.97,3493.59,3122.98,3543.88,599.95,595.97,3.42,0000 0000 0000 0000 000000
2016-05-18 05:49:26,0.02,0.07,0.00,25.00,29.02,31.95,14.49,48.42,1023.54,2029.87,3493.01,3122.43,3543.11,599.65,595.80,3.47,0000 0000 0000 0000 000000
2016-05-18 05:54:27,-0.01,0.07,0.00,25.03,29.06,31.98,14.45,48.33,1023.77,2029.51,3492.45,3122.01,3542.85,600.18,596.14,3.52,0000 0000 0000 0000 000000
2016-05-18 05:59:28,0.00,0.07,0.00,25.07,29.09,31.99,14.43,48.44,1023.93,2029.08,3491.89,3121.61,3542.06,599.86,595.97,3.57,0000 0000 0000 0000 000000
2016-05-18 06:04:30,0.02,0.07,0.00,25.08,29.11,32.02,14.50,48.63,1023.94,2029.01,3491.09,3121.02,3541.77,599.79,595.85,3.62,0000 0000 0000 0000 000000
2016-05-18 06:09:31,0.01,0.07,0.00,25.11,29.15,32.03,14.47,48.47,1023.94,2029.00,3490.90,3120.95,3541.07,599.69,595.78,3.67,0000 0000 0000 0000 000000
2016-05-18 06:14:33,0.04,0.07,0.00,25.14,29.18,32.07,14.51,48.48,1023.94,2029.00,3490.08,3120.22,3540.85,600.15,596.19,3.72,0000 0000 0000 0000 000000
2016-05-18 06:19:34,0.01,0.07,0.00,25.17,29.21,32.10,14.51,48.52,1023.94,2028.99,3489.71,3120.00,3540.09,599.88,595.81,3.78,0000 0000 0000 0000 000000
2016-05-18 06:24:35,0.02,0.07,0.00,25.20,29.23,32.13,14.51,48.56,1023.95,2028.97,3489.03,3119.54,3539.83,599.77,595.67,3.83,0000 0000 0000 0000 000000
2016-05-18 06:29:37,0.01,0.07,0.00,25.25,29.26,32.15,14.32,48.21,1023.95,2028.82,3488.40,3119.02,3539.08,599.57,595.38,3.88,0000 0000 0000 0000 000000
2016-05-18 06:34:38,-0.02,0.07,0.00,25.29,29.29,32.19,14.51,48.48,1023.96,2028.35,3487.98,3118.83,3538.73,600.04,595.78,3.93,0000 0000 0000 0000 000000
2016-05-18 06:39:39,0.02,0.07,0.00,25.32,29.32,32.21,14.48,48.23,1023.95,2028.09,3487.35,3118.12,3538.04,600.04,595.68,3.98,0000 0000 0000 0000 000000
2016-05-18 06:44:40,0.00,0.07,0.00,25.37,29.35,32.24,14.47,48.41,1024.02,2028.01,3486.95,3117.98,3537.88,599.82,595.56,4.03,0000 0000 0000 0000 000000
2016-05-18 06:49:42,0.04,0.07,0.00,25.40,29.38,32.27,14.50,48.39,1024.14,2028.00,3486.13,3117.43,3537.09,599.98,595.52,4.08,0000 0000 0000 0000 000000
2016-05-18 06:54:43,0.01,0.08,0.00,25.45,29.41,32.30,14.51,48.44,1024.27,2028.00,3485.82,3117.01,3536.89,600.32,595.92,4.13,0000 0000 0000 0000 000000
2016-05-18 06:59:44,0.03,0.08,0.00,25.49,29.43,32.33,14.59,48.41,1024.38,2028.00,3485.07,3116.76,3536.12,600.33,595.91,4.18,0000 0000 0000 0000 000000
2016-05-18 07:04:46,0.02,0.08,0.00,25.53,29.46,32.35,14.48,48.32,1024.43,2027.98,3484.55,3116.05,3535.91,599.94,595.58,4.23,0000 0000 0000 0000 000000
2016-05-18 07:09:47,0.01,0.08,0.00,25.58,29.49,32.39,14.44,48.29,1024.43,2027.93,3484.02,3115.98,3535.22,599.47,594.93,4.28,0000 0000 0000 0000 000000
2016-05-18 07:14:49,-0.02,0.08,0.00,25.62,29.52,32.42,14.46,48.32,1024.43,2027.41,3483.44,3115.36,3534.90,599.49,594.85,4.33,0000 0000 0000 0000 000000
2016-05-18 07:19:50,0.00,0.08,0.00,25.67,29.55,32.44,14.50,48.31,1024.43,2027.08,3482.97,3115.00,3534.15,599.71,595.03,4.38,0000 0000 0000 0000 000000
2016-05-18 07:24:51,0.02,0.08,0.00,25.72,29.58,32.47,14.43,48.23,1024.43,2027.03,3482.34,3114.71,3533.91,599.96,594.88,4.43,0000 0000 0000 0000 000000
2016-05-18 07:29:52,0.02,0.08,0.00,25.78,29.61,32.50,14.46,48.41,1024.43,2027.00,3481.93,3114.05,3533.15,600.22,595.26,4.48,0000 0000 0000 0000 000000
2016-05-18 07:34:53,0.03,0.08,0.00,25.82,29.64,32.55,14.41,48.08,1024.43,2026.99,3481.12,3113.74,3532.72,599.92,594.84,4.53,0000 0000 0000 0000 000000
2016-05-18 07:39:55,0.02,0.08,0.00,25.86,29.68,32.58,14.48,48.23,1024.43,2026.97,3480.73,3113.07,3532.05,600.00,594.91,4.58,0000 0000 0000 0000 000000
2016-05-18 07:44:56,0.00,0.08,0.00,25.91,29.71,32.61,14.33,48.01,1024.44,2026.93,3480.04,3112.99,3531.98,599.56,594.42,4.63,0000 0000 0000 0000 000000
2016-05-18 07:49:57,-0.01,0.08,0.00,25.96,29.74,32.66,14.35,47.95,1024.44,2026.50,3479.55,3112.39,3531.22,599.67,594.35,4.68,0000 0000 0000 0000 000000
2016-05-18 07:54:59,0.00,0.08,0.00,26.01,29.77,32.68,14.48,47.96,1024.44,2026.14,3479.00,3112.00,3530.94,599.92,594.41,4.73,0000 0000 0000 0000 000000
2016-05-18 08:00:00,0.02,0.08,0.00,26.05,29.80,32.72,14.45,48.26,1024.44,2026.04,3478.47,3111.75,3530.15,600.20,594.89,4.78,0000 0000 0000 0000 000000
2016-05-18 08:05:01,0.01,0.09,0.00,26.08,29.83,32.75,14.47,48.14,1024.50,2026.00,3477.94,3111.05,3529.86,599.38,593.95,4.83,0000 0000 0000 0000 000000
2016-05-18 08:10:03,0.03,0.09,0.00,26.11,29.87,32.80,14.36,48.01,1024.63,2025.99,3477.16,3110.81,3529.06,599.81,594.31,4.88,0000 0000 0000 0000 000000
2016-05-18 08:15:04,0.03,0.09,0.00,26.14,29.90,32.83,14.54,48.20,1024.84,2025.96,3476.68,3110.08,3528.61,600.32,594.83,4.93,0000 0000 0000 0000 000000
2016-05-18 08:20:06,-0.00,0.09,0.00,26.18,29.93,32.86,14.47,47.92,1024.91,2025.80,3476.02,3109.94,3528.02,599.86,594.26,4.98,0000 0000 0000 0000 000000
2016-05-18 08:25:07,-0.00,0.09,0.00,26.22,29.96,32.89,14.42,47.88,1024.92,2025.47,3475.58,3109.30,3527.74,599.67,594.03,5.03,0000 0000 0000 0000 000000
2016-05-18 08:30:08,-0.01,0.09,0.00,26.25,30.00,32.92,14.44,48.16,1024.92,2025.09,3474.94,3109.00,3527.03,600.18,594.58,5.08,0000 0000 0000 0000 000000
2016-05-18 08:35:09,0.04,0.09,0.00,26.29,30.03,32.95,14.43,48.01,1024.93,2025.01,3474.19,3108.44,3526.52,600.10,594.38,5.13,0000 0000 0000 0000 000000
2016-05-18 08:40:10,0.01,0.09,0.00,26.32,30.06,32.99,14.40,48.29,1024.93,2025.00,3473.71,3108.00,3525.99,600.15,594.46,5.18,0000 0000 0000 0000 000000
2016-05-18 08:45:11,0.03,0.09,0.00,26.36,30.10,33.02,14.46,48.17,1024.96,2024.99,3473.02,3107.45,3525.35,599.88,594.13,5.23,0000 0000 0000 0000 000000
2016-05-18 08:50:12,0.01,0.09,0.00,26.39,30.13,33.06,14.49,48.06,1025.02,2024.92,3472.44,3107.01,3524.95,600.12,594.23,5.28,0000 0000 0000 0000 000000
2016-05-18 08:55:14,-0.01,0.09,0.00,26.43,30.16,33.10,14.48,48.04,1025.29,2024.66,3472.00,3106.85,3524.24,600.12,594.31,5.33,0000 0000 0000 0000 000000
2016-05-18 09:00:15,0.01,0.09,0.00,26.46,30.20,33.13,14.51,48.36,1025.33,2024.29,3471.43,3106.14,3523.95,600.13,594.25,5.38,0000 0000 0000 0000 000000
2016-05-18 09:05:16,0.00,0.09,0.00,26.49,30.23,33.16,14.40,47.97,1025.39,2024.03,3470.84,3105.91,3523.25,600.06,594.17,5.43,0000 0000 0000 0000 000000
2016-05-18 09:10:18,0.03,0.10,0.00,26.53,30.26,33.21,14.45,48.27,1025.40,2024.00,3470.06,3105.15,3522.85,599.70,593.80,5.48,0000 0000 0000 0000 000000
2016-05-18 09:15:19,0.02,0.10,0.00,26.57,30.30,33.24,14.42,48.30,1025.40,2024.00,3469.54,3104.95,3522.06,599.72,593.81,5.53,0000 0000 0000 0000 000000
2016-05-18 09:20:20,0.03,0.10,0.00,26.60,30.33,33.27,14.49,48.11,1025.40,2023.98,3468.98,3104.21,3521.68,599.70,593.71,5.58,0000 0000 0000 0000 000000
2016-05-18 09:25:22,-0.00,0.10,0.00,26.64,30.36,33.30,14.52,48.13,1025.40,2023.81,3468.18,3103.98,3521.02,600.10,593.86,5.63,0000 0000 0000 0000 000000
2016-05-18 09:30:23,-0.01,0.10,0.00,26.67,30.40,33.33,14.48,47.92,1025.41,2023.29,3467.84,3103.29,3520.49,599.76,593.61,5.68,0000 0000 0000 0000 000000
2016-05-18 09:35:24,0.00,0.10,0.00,26.70,30.43,33.38,14.45,48.21,1025.41,2023.04,3467.05,3103.00,3520.01,600.09,593.77,5.73,0000 0000 0000 0000 000000
2016-05-18 09:40:26,0.03,0.10,0.00,26.74,30.46,33.42,14.40,48.10,1025.41,2023.00,3466.64,3102.54,3519.56,599.76,593.63,5.78,0000 0000 0000 0000 000000
2016-05-18 09:45:27,0.01,0.10,0.00,26.78,30.50,33.46,14.46,48.10,1025.41,2023.00,3466.02,3102.02,3519.02,599.58,593.16,5.83,0000 0000 0000 0000 000000
2016-05-18 09:50:28,0.02,0.10,0.00,26.82,30.53,33.50,14.44,48.01,1025.41,2022.99,3465.53,3101.87,3518.77,600.15,593.69,5.88,0000 0000 0000 0000 000000
2016-05-18 09:55:29,0.02,0.10,0.00,26.86,30.56,33.55,14.39,47.79,1025.42,2022.92,3464.98,3101.12,3518.05,600.04,593.43,5.93,0000 0000 0000 0000 000000
2016-05-18 10:00:31,0.01,0.10,0.00,26.89,30.59,33.58,14.42,47.84,1025.42,2022.68,3464.20,3100.96,3517.62,600.10,593.58,5.98,0000 0000 0000 0000 000000
2016-05-18 10:05:32,-0.02,0.10,0.00,26.92,30.62,33.62,14.39,47.73,1025.42,2022.18,3463.92,3100.26,3517.02,599.53,592.99,6.03,0000 0000 0000 0000 000000
2016-05-18 10:10:33,0.01,0.10,0.00,26.95,30.66,33.66,14.48,47.97,1025.42,2022.02,3463.19,3100.00,3516.68,600.20,593.48,6.08,0000 0000 0000 0000 000000
2016-05-18 10:15:35,0.03,0.10,0.00,26.98,30.68,33.72,14.41,47.96,1025.43,2022.00,3462.72,3099.61,3516.03,599.90,593.12,6.14,0000 0000 0000 0000 000000
2016-05-18 10:20:36,0.02,0.11,0.00,27.02,30.71,33.77,14.50,47.92,1025.43,2022.00,3462.02,3099.02,3515.60,600.22,593.33,6.19,0000 0000 0000 0000 000000
2016-05-18 10:25:37,0.02,0.11,0.00,27.04,30.74,33.80,14.41,47.93,1025.43,2021.99,3461.49,3098.85,3515.01,600.01,593.04,6.24,0000 0000 0000 0000 000000
2016-05-18 10:30:39,0.02,0.11,0.00,27.08,30.77,33.83,14.44,47.83,1025.41,2021.87,3461.00,3098.12,3514.45,600.10,593.17,6.29,0000 0000 0000 0000 000000
2016-05-18 10:35:40,-0.02,0.11,0.00,27.13,30.80,33.86,14.40,47.97,1025.41,2021.55,3460.42,3097.99,3514.00,599.89,592.80,6.34,0000 0000 0000 0000 000000
2016-05-18 10:40:42,0.00,0.11,0.00,27.16,30.83,33.89,14.37,47.81,1025.42,2021.13,3459.98,3097.39,3513.38,600.01,592.89,6.39,0000 0000 0000 0000 000000
2016-05-18 10:45:43,0.01,0.11,0.00,27.19,30.86,33.93,14.42,47.88,1025.49,2021.01,3459.23,3097.00,3513.00,600.15,593.02,6.44,0000 0000 0000 0000 000000
2016-05-18 10:50:45,0.02,0.11,0.00,27.23,30.89,33.97,14.40,47.87,1025.70,2021.00,3458.86,3096.72,3512.48,600.04,592.98,6.49,0000 0000 0000 0000 000000
2016-05-18 10:55:46,0.02,0.11,0.00,27.27,30.92,34.02,14.39,47.85,1025.87,2021.00,3458.10,3096.06,3511.99,599.80,592.70,6.54,0000 0000 0000 0000 000000
2016-05-18 11:00:47,0.03,0.11,0.00,27.31,30.96,34.04,14.40,47.74,1025.89,2020.97,3457.53,3095.80,3511.36,600.05,592.89,6.59,0000 0000 0000 0000 000000
2016-05-18 11:05:49,-0.01,0.11,0.00,27.35,30.99,34.08,14.42,47.79,1025.88,2020.78,3456.98,3095.08,3510.98,599.76,592.57,6.64,0000 0000 0000 0000 000000
2016-05-18 11:10:50,-0.00,0.11,0.00,27.38,31.01,34.11,14.47,47.85,1025.86,2020.38,3456.32,3094.97,3510.27,600.31,593.03,6.69,0000 0000 0000 0000 000000
2016-05-18 11:15:51,0.01,0.11,0.00,27.41,31.05,34.15,14.32,47.77,1025.89,2020.09,3455.99,3094.42,3509.99,599.66,592.43,6.74,0000 0000 0000 0000 000000
2016-05-18 11:20:53,0.02,0.11,0.00,27.44,31.08,34.18,14.35,47.74,1025.89,2020.00,3455.50,3094.01,3509.46,599.98,592.74,6.79,0000 0000 0000 0000 000000
2016-05-18 11:25:54,0.00,0.11,0.00,27.46,31.11,34.22,14.48,47.85,1025.91,2020.00,3455.00,3093.90,3509.00,600.30,592.81,6.84,0000 0000 0000 0000 000000
2016-05-18 11:30:55,0.04,0.11,0.00,27.48,31.13,34.26,14.34,47.74,1025.92,2020.00,3454.47,3093.16,3508.49,599.78,592.30,6.89,0000 0000 0000 0000 000000
2016-05-18 11:35:56,0.00,0.12,0.00,27.49,31.16,34.30,14.41,47.87,1025.93,2019.98,3453.98,3092.98,3508.00,599.93,592.39,6.94,0000 0000 0000 0000 000000
2016-05-18 11:40:58,0.03,0.12,0.00,27.46,31.17,34.31,14.40,47.92,1026.11,2019.93,3453.26,3092.55,3507.68,599.87,592.65,6.99,0000 0000 0000 0000 000000
2016-05-18 11:45:59,0.00,0.12,0.00,27.42,31.20,34.30,14.43,47.72,1026.29,2019.83,3452.84,3092.02,3507.05,600.23,593.09,7.04,0000 0000 0000 0000 000000
2016-05-18 11:51:00,-0.01,0.12,0.00,27.35,31.21,34.29,14.33,47.93,1026.30,2019.60,3452.07,3091.96,3506.94,599.70,592.73,7.09,0000 0000 0000 0000 000000
2016-05-18 11:56:01,0.01,0.12,0.00,27.26,31.22,34.30,14.48,47.98,1026.36,2019.36,3451.90,3091.50,3506.31,600.06,593.25,7.14,0000 0000 0000 0000 000000
2016-05-18 12:01:03,-0.00,0.12,0.00,27.17,31.22,34.26,14.47,47.88,1026.37,2019.15,3451.12,3091.03,3506.01,600.21,593.56,7.19,0000 0000 0000 0000 000000
2016-05-18 12:06:04,0.00,0.12,0.00,27.08,31.24,34.27,14.41,47.85,1026.38,2019.10,3450.98,3091.00,3505.85,599.76,593.35,7.24,0000 0000 0000 0000 000000
2016-05-18 12:11:06,0.03,0.12,0.00,27.00,31.25,34.25,14.51,47.89,1026.38,2019.03,3450.49,3090.77,3505.19,600.22,593.86,7.29,0000 0000 0000 0000 000000
2016-05-18 12:16:07,0.01,0.12,0.00,26.96,31.25,34.25,14.47,47.97,1026.38,2019.00,3450.02,3090.10,3504.98,599.89,593.75,7.34,0000 0000 0000 0000 000000
2016-05-18 12:21:08,0.01,0.12,0.00,26.90,31.25,34.24,14.47,48.02,1026.40,2019.00,3449.77,3090.01,3504.49,600.09,594.02,7.39,0000 0000 0000 0000 000000
2016-05-18 12:26:09,0.01,0.12,0.00,26.86,31.25,34.25,14.47,47.97,1026.39,2019.00,3449.04,3090.00,3504.01,599.98,594.01,7.44,0000 0000 0000 0000 000000
2016-05-18 12:31:11,0.01,0.12,0.00,26.82,31.24,34.22,14.58,48.06,1026.40,2019.00,3448.89,3089.77,3504.00,600.07,594.17,7.49,0000 0000 0000 0000 000000
2016-05-18 12:36:12,0.03,0.12,0.00,26.77,31.22,34.20,14.47,47.97,1026.41,2019.00,3448.08,3089.11,3503.91,599.90,594.05,7.54,0000 0000 0000 0000 000000
2016-05-18 12:41:13,0.01,0.12,0.00,26.72,31.22,34.18,14.44,47.94,1026.41,2019.00,3447.97,3089.01,3503.53,599.65,594.03,7.59,0000 0000 0000 0000 000000
2016-05-18 12:46:14,0.01,0.13,0.00,26.69,31.22,34.18,14.43,47.96,1026.40,2019.00,3447.37,3089.00,3503.05,600.01,594.40,7.64,0000 0000 0000 0000 000000
2016-05-18 12:51:15,0.00,0.13,0.00,26.65,31.20,34.17,14.43,47.84,1026.39,2019.00,3447.01,3088.98,3503.00,599.68,594.07,7.69,0000 0000 0000 0000 000000
2016-05-18 12:56:17,0.00,0.13,0.00,26.62,31.20,34.15,14.52,47.97,1026.41,2019.01,3446.88,3088.86,3502.99,599.99,594.48,7.74,0000 0000 0000 0000 000000
2016-05-18 13:01:18,0.02,0.13,0.00,26.59,31.17,34.13,14.48,48.01,1026.46,2019.02,3446.21,3088.50,3502.93,599.80,594.46,7.79,0000 0000 0000 0000 000000